When you browse on this site, cookies collect data to enhance your experience and personalize the content and advertising you see.
Visit our Privacy Policy to learn more. By continuing to use the site, you agree to this use of cookies and data.
  • In United Kingdom
  • List of Countries
  • For 7 days
  • Water Temperature
  • Weather Map
  • Weather Widgets
  • user-avatar
    Login

    Hourly Weather Codlea

    Today, 17 September, Tuesday

    Time Temperature Precipitation Wind Pressure Humidity
    00:00 +13°C° 0 mm 1 mps 698 mmHg 58%
    01:00 +13°C° 0 mm 1 mps 698 mmHg 60%
    02:00 +13°C° 0 mm 1 mps 698 mmHg 63%
    03:00 +12°C° 0 mm 1 mps 698 mmHg 65%
    04:00 +12°C° 0 mm 1 mps 698 mmHg 68%
    05:00 +11°C° 0 mm 0 mps 697 mmHg 71%
    06:00 +14°C° 0 mm 1 mps 698 mmHg 66%
    07:00 +15°C° 0 mm 1 mps 698 mmHg 61%
    08:00 +18°C° 0 mm 1 mps 699 mmHg 57%
    09:00 +18°C° 0 mm 2 mps 699 mmHg 54%
    10:00 +19°C° 0 mm 3 mps 699 mmHg 51%
    11:00 +20°C° 0 mm 5 mps 699 mmHg 49%
    12:00 +21°C° 0 mm 4 mps 699 mmHg 47%
    13:00 +21°C° 0 mm 4 mps 699 mmHg 45%
    14:00 +22°C° 0 mm 4 mps 699 mmHg 43%
    15:00 +22°C° 0 mm 4 mps 698 mmHg 45%
    16:00 +21°C° 0 mm 3 mps 698 mmHg 47%
    17:00 +21°C° 0 mm 3 mps 697 mmHg 49%
    18:00 +19°C° 0 mm 2 mps 697 mmHg 53%
    19:00 +18°C° 0 mm 2 mps 697 mmHg 56%
    20:00 +18°C° 0 mm 1 mps 697 mmHg 60%
    21:00 +16°C° 0 mm 1 mps 697 mmHg 62%
    22:00 +16°C° 0 mm 1 mps 697 mmHg 63%
    23:00 +15°C° 0 mm 1 mps 696 mmHg 65%

    Tomorrow, 18 September, Wednesday

    Time Temperature Precipitation Wind Pressure Humidity
    00:00 +15°C° 0 mm 1 mps 696 mmHg 67%
    01:00 +14°C° 0 mm 1 mps 696 mmHg 69%
    02:00 +14°C° 0 mm 1 mps 696 mmHg 71%
    03:00 +14°C° 0 mm 1 mps 696 mmHg 72%
    04:00 +14°C° 0 mm 1 mps 696 mmHg 73%
    05:00 +14°C° 0 mm 2 mps 696 mmHg 73%
    06:00 +13°C° 0.9 mm 2 mps 696 mmHg 80%
    07:00 +13°C° 0.9 mm 2 mps 696 mmHg 87%
    08:00 +12°C° 0.9 mm 2 mps 696 mmHg 94%
    09:00 +12°C° 0.4 mm 3 mps 697 mmHg 86%
    10:00 +12°C° 0.4 mm 3 mps 697 mmHg 79%
    11:00 +12°C° 0.4 mm 4 mps 698 mmHg 72%
    12:00 +13°C° 0.1 mm 5 mps 698 mmHg 66%
    13:00 +14°C° 0.1 mm 5 mps 699 mmHg 59%
    14:00 +15°C° 0.1 mm 6 mps 699 mmHg 53%
    15:00 +14°C° 0 mm 5 mps 699 mmHg 52%
    16:00 +14°C° 0 mm 5 mps 699 mmHg 51%
    17:00 +13°C° 0 mm 5 mps 700 mmHg 49%
    18:00 +11°C° 0 mm 4 mps 700 mmHg 54%
    19:00 +9°C° 0 mm 2 mps 700 mmHg 58%
    20:00 +8°C° 0 mm 1 mps 701 mmHg 62%
    21:00 +8°C° 0 mm 1 mps 701 mmHg 63%
    22:00 +7°C° 0 mm 1 mps 701 mmHg 63%
    23:00 +6°C° 0 mm 1 mps 702 mmHg 64%

    Day after tomorrow, 19 September, Thursday

    Time Temperature Precipitation Wind Pressure Humidity
    00:00 +6°C° 0 mm 1 mps 702 mmHg 65%
    01:00 +6°C° 0 mm 1 mps 702 mmHg 66%
    02:00 +4°C° 0 mm 0 mps 702 mmHg 67%
    03:00 +5°C° 0 mm 1 mps 702 mmHg 69%
    04:00 +5°C° 0 mm 1 mps 702 mmHg 71%
    05:00 +5°C° 0 mm 1 mps 702 mmHg 73%
    06:00 +6°C° 0 mm 1 mps 702 mmHg 67%
    07:00 +8°C° 0 mm 1 mps 703 mmHg 61%
    08:00 +10°C° 0 mm 1 mps 703 mmHg 55%
    09:00 +12°C° 0 mm 1 mps 703 mmHg 50%
    10:00 +14°C° 0 mm 1 mps 703 mmHg 44%
    11:00 +16°C° 0 mm 2 mps 703 mmHg 39%
    12:00 +16°C° 0 mm 2 mps 703 mmHg 37%
    13:00 +17°C° 0 mm 2 mps 703 mmHg 35%
    14:00 +18°C° 0 mm 3 mps 702 mmHg 33%
    15:00 +17°C° 0 mm 3 mps 702 mmHg 34%
    16:00 +16°C° 0 mm 3 mps 702 mmHg 35%
    17:00 +14°C° 0 mm 3 mps 701 mmHg 36%
    18:00 +13°C° 0 mm 3 mps 702 mmHg 40%
    19:00 +11°C° 0 mm 3 mps 702 mmHg 45%
    20:00 +9°C° 0 mm 3 mps 702 mmHg 49%
    21:00 +8°C° 0 mm 2 mps 702 mmHg 52%
    22:00 +7°C° 0 mm 2 mps 702 mmHg 55%
    23:00 +6°C° 0 mm 2 mps 702 mmHg 58%

    20 September, Friday

    Time Temperature Precipitation Wind Pressure Humidity
    00:00 +5°C° 0 mm 2 mps 702 mmHg 62%
    01:00 +5°C° 0 mm 2 mps 702 mmHg 66%
    02:00 +4°C° 0 mm 2 mps 702 mmHg 70%
    03:00 +3°C° 0 mm 2 mps 702 mmHg 73%
    04:00 +4°C° 0 mm 1 mps 702 mmHg 76%
    05:00 +3°C° 0 mm 1 mps 702 mmHg 79%
    06:00 +3°C° 0 mm 2 mps 702 mmHg 73%
    07:00 +5°C° 0 mm 2 mps 702 mmHg 67%
    08:00 +5°C° 0 mm 3 mps 703 mmHg 61%
    09:00 +8°C° 0 mm 3 mps 703 mmHg 56%
    10:00 +8°C° 0 mm 4 mps 703 mmHg 52%
    11:00 +11°C° 0 mm 4 mps 704 mmHg 47%
    12:00 +10°C° 0 mm 5 mps 704 mmHg 44%
    13:00 +12°C° 0 mm 5 mps 703 mmHg 41%
    14:00 +11°C° 0 mm 6 mps 703 mmHg 39%
    15:00 +12°C° 0 mm 5 mps 703 mmHg 36%
    16:00 +12°C° 0 mm 5 mps 703 mmHg 34%
    17:00 +10°C° 0 mm 5 mps 703 mmHg 32%
    18:00 +8°C° 0 mm 4 mps 703 mmHg 38%
    19:00 +7°C° 0 mm 3 mps 704 mmHg 44%
    20:00 +5°C° 0 mm 2 mps 704 mmHg 50%
    21:00 +5°C° 0 mm 2 mps 704 mmHg 54%
    22:00 +4°C° 0 mm 2 mps 704 mmHg 57%
    23:00 +4°C° 0 mm 2 mps 705 mmHg 61%

    21 September, Saturday

    Time Temperature Precipitation Wind Pressure Humidity
    00:00 +3°C° 0 mm 2 mps 705 mmHg 64%
    01:00 +3°C° 0 mm 2 mps 705 mmHg 66%
    02:00 +3°C° 0 mm 2 mps 705 mmHg 69%
    03:00 +2°C° 0 mm 2 mps 705 mmHg 72%
    04:00 +3°C° 0 mm 1 mps 705 mmHg 75%
    05:00 +2°C° 0 mm 1 mps 705 mmHg 78%
    06:00 +4°C° 0 mm 1 mps 705 mmHg 72%
    07:00 +5°C° 0 mm 1 mps 706 mmHg 65%
    08:00 +7°C° 0 mm 1 mps 706 mmHg 58%
    09:00 +8°C° 0 mm 2 mps 707 mmHg 51%
    10:00 +9°C° 0 mm 2 mps 707 mmHg 44%
    11:00 +12°C° 0 mm 2 mps 708 mmHg 36%
    12:00 +13°C° 0 mm 2 mps 707 mmHg 33%
    13:00 +14°C° 0 mm 2 mps 707 mmHg 31%
    14:00 +14°C° 0 mm 2 mps 707 mmHg 28%
    15:00 +14°C° 0 mm 2 mps 707 mmHg 29%
    16:00 +14°C° 0 mm 2 mps 707 mmHg 30%
    17:00 +14°C° 0 mm 2 mps 706 mmHg 31%
    18:00 +10°C° 0 mm 2 mps 706 mmHg 36%
    19:00 +9°C° 0 mm 1 mps 707 mmHg 42%
    20:00 +6°C° 0 mm 1 mps 707 mmHg 47%
    21:00 +6°C° 0 mm 1 mps 707 mmHg 48%
    22:00 +6°C° 0 mm 1 mps 707 mmHg 50%
    23:00 +5°C° 0 mm 1 mps 707 mmHg 51%

    22 September, Sunday

    Time Temperature Precipitation Wind Pressure Humidity
    00:00 +5°C° 0 mm 1 mps 707 mmHg 53%
    01:00 +5°C° 0 mm 1 mps 707 mmHg 55%
    02:00 +4°C° 0 mm 1 mps 707 mmHg 57%
    03:00 +4°C° 0 mm 1 mps 707 mmHg 58%
    04:00 +3°C° 0 mm 1 mps 707 mmHg 60%
    05:00 +3°C° 0 mm 1 mps 707 mmHg 61%
    06:00 +5°C° 0 mm 1 mps 707 mmHg 55%
    07:00 +7°C° 0 mm 1 mps 707 mmHg 50%
    08:00 +8°C° 0 mm 0 mps 708 mmHg 44%
    09:00 +11°C° 0 mm 1 mps 708 mmHg 38%
    10:00 +14°C° 0 mm 1 mps 709 mmHg 33%
    11:00 +18°C° 0 mm 1 mps 709 mmHg 27%
    12:00 +18°C° 0 mm 1 mps 709 mmHg 27%
    13:00 +19°C° 0 mm 1 mps 708 mmHg 26%
    14:00 +19°C° 0 mm 1 mps 708 mmHg 25%
    15:00 +19°C° 0 mm 1 mps 708 mmHg 28%
    16:00 +18°C° 0 mm 1 mps 708 mmHg 30%
    17:00 +18°C° 0 mm 1 mps 707 mmHg 32%
    18:00 +14°C° 0 mm 1 mps 707 mmHg 37%
    19:00 +12°C° 0 mm 1 mps 707 mmHg 41%
    20:00 +9°C° 0 mm 1 mps 707 mmHg 46%
    21:00 +9°C° 0 mm 1 mps 707 mmHg 47%
    22:00 +8°C° 0 mm 1 mps 707 mmHg 48%
    23:00 +8°C° 0 mm 1 mps 707 mmHg 49%
    Show more